RH
76 91 95 99 100 98 100 100 100 100 99 93 89 90 89 87 82 80 75 72 78 77 81 75 69 68 68 66 66 68 68 68 66 65 71 72 71 69 68 65 64 69 81
87 89 95 99 100 100 100 99 100 98 99 98 88 87 86 85 82 84 80 76 74 72 73 74 70 68 69 66 65 68 73 72 67 70 73 86 77 74 72 70 65 63 68
95 96 97 100 99 96 99 99 100 95 96 92 88 84 86 85 82 78 77 73 67 64 68 70 65 63 69 66 66 72 74 74 68 68 64 82 82 75 68 73 74 70 70
83 76 90 94 100 100 92 95 95 99 100 99 91 78 80 78 80 78 75 70 67 63 63 59 59 57 60 65 66 71 79 75 71 67 59 66 61 73 78 72 74 73 73
66 72 77 82 91 98 100 100 99 99 100 100 96 92 82 77 72 68 64 65 64 62 63 58 54 56 55 58 64 67 75 80 76 73 67 64 66 65 72 86 69 67 67
47 46 46 60 68 82 84 95 100 100 100 100 100 99 87 72 65 62 62 63 63 63 61 62 58 58 60 58 56 63 69 74 78 77 71 64 67 69 72 80 73 68 63
40 42 41 41 44 59 67 66 72 80 96 100 100 99 100 94 84 72 66 62 60 61 61 62 62 61 59 59 58 61 68 70 74 74 76 70 65 62 61 59 65 75 64
36 39 38 39 40 43 46 48 53 52 58 79 91 98 100 100 100 97 87 70 67 67 62 61 62 61 60 61 62 62 62 69 72 74 74 75 73 68 63 61 62 80 71
37 36 35 36 39 40 42 44 45 47 47 48 52 63 70 86 100 100 100 100 94 80 71 70 68 67 67 66 65 66 65 65 69 74 73 75 76 74 70 64 60 65 90
35 34 33 34 37 39 42 43 44 46 47 46 48 52 52 62 69 78 91 98 99 99 94 88 82 74 69 68 68 70 69 69 67 68 72 75 77 77 76 72 67 63 65
35 34 33 34 36 39 41 43 44 46 47 47 47 49 49 53 56 54 61 71 80 88 97 99 99 94 97 96 89 78 71 71 72 70 72 73 77 82 82 77 74 70 65
35 33 33 34 36 40 41 42 44 46 48 48 48 49 50 51 52 51 56 63 66 69 77 88 100 97 97 99 100 98 84 77 76 77 80 73 74 76 82 84 81 80 76
35 35 35 36 38 40 41 43 45 47 48 49 50 51 52 53 54 54 52 51 54 55 59 70 76 91 99 94 94 98 100 100 99 92 84 78 74 73 78 82 84 84 84
37 38 39 38 39 42 43 44 46 47 48 50 52 53 55 57 58 60 61 61 59 59 58 51 56 71 80 92 95 97 98 100 100 100 97 96 90 83 79 81 85 85 85
39 40 43 41 43 44 44 46 48 48 49 51 52 54 57 59 61 63 65 65 65 66 66 66 65 61 62 74 88 91 96 98 99 99 99 100 99 98 93 90 90 90 90
42 42 42 44 46 47 46 48 50 50 50 51 52 56 59 61 64 66 68 68 68 69 70 73 73 73 70 70 74 80 100 100 100 100 99 99 100 100 100 100 97 94 90
44 46 47 47 49 49 48 51 52 52 52 52 55 59 62 63 65 67 68 69 71 73 74 75 77 79 79 76 80 82 83 95 99 99 100 100 100 100 100 100 100 100 91
48 49 49 51 52 50 50 51 52 52 53 54 59 62 64 65 66 68 69 71 74 76 78 80 81 82 83 82 85 85 85 88 87 100 99 100 100 99 100 100 100 100 99
48 50 51 53 52 50 46 48 48 48 48 51 56 59 63 66 67 69 70 73 79 82 84 82 80 78 80 81 82 82 87 87 90 92 100 100 100 98 99 100 100 99 100
49 48 46 44 48 43 42 44 45 46 46 52 53 56 60 62 64 69 75 80 84 85 85 85 85 83 84 85 83 82 79 79 85 90 93 100 100 100 100 100 100 100 99
41 42 41 43 44 41 42 44 45 47 49 51 54 56 60 62 64 72 84 84 83 85 85 86 84 81 80 78 78 82 80 80 85 83 85 99 100 100 100 100 100 98 100
40 40 42 44 46 45 46 49 52 53 55 56 58 62 66 73 78 84 87 85 84 84 85 84 82 77 75 76 77 77 89 90 95 94 91 90 99 98 100 100 100 100 100
40 43 46 51 51 50 51 54 56 57 59 60 65 71 79 84 88 84 86 85 85 86 85 83 82 83 84 81 81 80 76 92 98 96 98 96 100 89 94 100 100 100 100
45 48 54 55 54 54 56 58 60 60 61 65 74 82 88 85 88 89 90 86 90 96 89 92 94 90 88 87 86 87 84 91 99 100 100 99 98 100 99 100 100 100 100
51 56 58 56 56 59 62 62 64 64 67 73 82 88 89 90 93 88 86 86 90 86 87 88 92 96 94 92 96 99 95 96 100 100 100 100 100 100 100 100 100 100 100
59 57 57 60 64 65 66 67 68 70 75 82 87 94 94 96 93 94 90 84 82 80 80 80 79 83 84 84 89 96 96 90 96 100 100 100 100 100 99 100 100 100 100
Wind_Speed
3 3 11 18 16 17 13 12 15 14 24 23 26 22 19 17 17 17 18 16 14 17 18 16 16 16 19 19 17 15 18 15 19 16 12 9 7 12 12 14 16 15 16
13 6 10 19 19 19 18 20 22 21 17 11 14 19 19 15 14 13 13 15 18 16 19 15 17 15 18 19 19 18 19 15 19 14 11 1 5 13 16 15 19 20 18
22 18 20 18 20 19 20 15 12 14 10 10 6 10 12 12 12 13 15 16 15 16 19 21 20 21 22 21 20 18 22 17 21 21 8 3 4 6 18 21 18 21 21
24 24 29 32 33 17 11 7 7 5 6 16 14 13 12 11 10 9 13 15 16 16 17 18 19 19 21 20 20 23 21 25 24 23 20 10 4 3 1 17 22 23 21
19 20 27 33 37 39 32 9 12 8 7 12 12 8 8 8 10 11 11 13 13 15 16 19 20 20 20 23 22 24 23 24 26 28 25 24 14 9 3 3 12 23 28
16 22 27 32 35 38 37 39 33 22 11 3 1 7 8 6 7 7 6 7 11 11 16 18 20 22 22 22 24 25 26 28 27 25 27 22 15 17 10 3 8 19 25
14 17 23 27 32 33 32 31 35 34 35 29 16 8 0 4 3 3 2 3 6 11 13 17 20 23 24 25 25 26 27 29 32 33 27 31 28 25 25 17 7 5 14
12 14 23 26 27 28 31 31 31 32 32 30 30 28 18 8 5 6 5 5 3 6 10 13 15 19 22 23 24 26 28 30 32 33 33 29 32 32 28 24 20 2 7
10 12 20 22 24 27 27 29 29 29 30 29 27 24 23 23 18 11 5 3 6 13 9 6 11 15 17 20 23 25 28 31 33 34 35 35 32 32 32 33 26 18 5
10 12 19 21 21 22 23 26 27 27 28 27 26 24 22 20 19 19 19 15 11 12 11 15 19 18 18 20 23 26 28 30 33 34 36 37 36 34 34 35 35 34 23
8 9 16 19 21 22 24 23 26 26 27 28 26 24 24 23 22 21 18 16 15 15 17 16 15 19 21 23 26 26 28 29 31 32 34 37 34 32 33 35 36 36 33
7 12 18 22 23 24 25 27 28 24 26 25 23 22 24 24 24 24 22 22 21 18 16 16 19 18 18 21 23 25 29 30 32 34 30 35 33 36 34 33 36 35 34
11 13 17 19 22 23 24 25 24 23 24 24 24 22 22 22 23 22 22 21 21 22 22 22 21 20 22 22 23 25 27 31 37 34 32 33 32 34 33 33 31 35 33
8 8 13 19 21 21 21 23 24 26 25 23 22 21 22 22 22 21 22 23 24 24 25 25 25 24 24 23 25 28 28 30 31 33 33 37 37 35 33 34 35 33 34
8 7 7 14 18 20 20 19 20 21 22 21 21 23 23 24 24 25 25 25 23 23 24 25 26 26 26 25 25 27 30 32 33 34 34 36 36 37 39 34 37 35 32
7 7 11 14 15 16 18 19 20 20 19 19 18 20 21 22 22 24 25 25 25 27 27 26 26 28 27 26 26 28 29 31 31 33 34 35 35 34 35 37 40 36 35
6 6 10 14 17 19 19 19 19 20 20 19 19 20 21 21 22 24 25 25 25 25 25 25 27 29 28 27 28 29 32 30 32 34 34 34 35 34 34 32 37 40 41
6 8 13 16 17 18 18 20 21 23 23 20 20 22 23 24 26 25 25 26 26 27 27 28 28 28 29 29 30 31 34 33 35 35 35 36 36 36 34 32 31 35 36
9 11 13 16 18 18 21 22 22 22 23 23 26 27 25 26 26 26 26 27 27 28 28 28 30 30 32 31 32 32 34 34 34 32 36 37 36 38 34 31 30 30 33
10 13 15 16 17 18 21 22 22 23 22 24 27 28 28 28 30 29 29 28 27 26 27 29 30 32 33 31 32 32 31 34 31 31 33 37 38 36 35 32 31 26 30
13 15 16 17 18 21 22 21 22 21 24 27 27 28 28 29 30 32 30 31 31 31 30 31 30 29 28 31 32 32 33 31 31 32 31 31 34 34 34 33 34 36 31
14 14 16 18 19 19 20 20 21 24 26 26 27 28 28 30 31 32 32 30 29 32 31 31 33 30 31 31 31 32 35 35 36 35 35 33 33 34 36 36 37 32 27
15 15 17 19 19 18 19 21 23 25 26 26 26 28 29 30 28 28 31 29 29 28 30 31 33 35 32 34 34 35 35 37 38 37 35 36 32 35 37 38 38 33 30
17 18 19 19 20 20 20 21 24 25 25 26 27 27 28 29 28 29 27 28 28 27 29 29 30 35 37 34 34 33 33 33 35 34 31 31 32 37 37 33 37 33 34
16 17 18 19 21 23 23 24 25 25 26 25 26 26 26 29 30 27 27 30 28 30 34 34 34 33 35 34 38 37 38 36 34 33 27 26 25 28 26 25 28 30 33
17 17 17 18 21 23 24 25 23 24 25 26 24 24 29 27 29 29 33 28 30 33 33 35 36 39 38 42 42 39 40 37 35 34 22 18 21 22 24 24 26 30 34
Wind_Direction
258 35 65 66 80 93 115 143 149 145 139 153 147 155 164 169 174 183 187 189 195 195 194 201 198 200 196 196 205 200 195 178 172 154 153 172 181 198 207 197 198 191 194
13 2 64 63 55 82 96 99 116 113 105 112 153 161 166 175 179 178 183 193 196 203 208 209 209 210 198 205 206 202 183 178 188 159 135 159 250 220 204 213 210 211 206
27 10 47 59 60 62 63 55 69 94 98 156 125 141 158 177 183 195 194 197 195 202 207 208 209 212 208 209 211 202 197 181 183 184 166 149 210 182 218 216 213 209 215
24 26 27 37 35 50 58 43 48 152 182 157 162 172 166 164 200 190 201 203 203 208 215 211 214 217 214 214 214 209 204 198 194 197 210 229 159 177 166 221 222 218 217
29 30 30 33 29 33 32 30 56 64 166 152 160 179 182 202 193 198 202 210 220 219 228 219 212 212 216 213 213 212 211 204 210 208 220 232 235 227 164 187 205 218 223
30 32 35 40 36 31 29 36 45 35 47 84 236 157 166 119 133 160 183 205 221 231 227 232 224 222 222 223 220 220 218 218 220 221 221 219 212 222 212 193 188 207 218
37 32 32 31 35 34 27 35 36 32 47 43 24 12 228 182 126 69 20 263 237 234 249 238 236 232 234 234 234 229 224 224 224 226 228 229 226 225 225 218 201 180 208
37 46 34 32 30 26 27 28 32 32 32 41 38 39 33 360 309 276 278 262 315 328 278 268 255 245 241 241 241 238 235 233 233 233 232 233 230 229 227 226 217 216 190
34 41 53 38 33 29 23 26 27 27 27 32 34 33 34 28 20 23 330 313 295 263 275 293 269 264 254 246 245 244 242 240 238 238 239 237 236 232 230 230 228 210 190
30 27 36 39 40 36 26 24 26 22 18 22 24 23 23 26 26 27 21 16 345 322 294 277 265 262 262 261 253 246 246 245 245 242 241 239 237 236 234 234 233 235 228
28 27 35 35 36 32 28 25 26 19 13 13 13 14 13 16 13 13 11 5 360 352 335 317 283 271 269 261 257 250 246 242 245 245 242 242 238 234 234 234 235 233 230
34 31 32 26 26 23 21 19 19 15 11 10 8 9 10 9 4 1 358 357 352 338 324 327 316 301 284 273 268 264 251 248 243 246 244 240 236 234 234 230 229 227 228
24 21 25 25 22 17 16 15 11 9 7 7 6 6 8 4 358 353 347 341 335 330 329 328 319 315 305 297 284 274 269 261 255 254 240 245 241 238 233 233 230 229 225
36 24 16 15 19 16 11 6 4 4 2 1 2 3 2 358 354 350 346 344 339 335 331 323 315 315 312 299 284 279 276 270 265 260 257 251 247 244 235 231 229 223 221
35 23 18 16 10 5 4 4 2 358 356 353 357 358 353 351 349 347 344 341 339 334 328 322 318 313 308 305 300 288 278 272 272 271 266 263 258 251 246 233 230 228 224
23 16 16 9 5 360 355 355 353 351 350 350 354 351 349 344 342 340 338 335 333 331 329 324 317 314 311 305 300 297 289 274 264 261 263 264 263 258 251 247 238 232 222
16 11 7 358 354 350 350 350 345 344 345 345 349 347 344 341 338 335 334 331 327 323 321 319 316 312 309 308 304 301 296 293 273 265 261 263 262 262 255 251 244 237 233
6 358 352 347 342 341 344 341 342 342 342 342 345 343 340 336 333 331 329 326 326 322 317 314 311 308 306 307 303 300 298 290 280 269 261 257 258 260 257 251 241 234 230
354 348 342 335 331 336 339 337 337 339 339 338 339 337 335 332 330 327 326 321 320 317 315 310 307 303 300 304 303 301 295 285 279 273 262 254 255 261 258 245 234 229 226
345 339 336 333 329 337 336 333 332 334 334 334 331 329 329 329 327 325 324 320 317 310 308 303 301 302 298 299 301 297 293 284 280 275 267 257 252 256 257 235 228 215 216
343 336 337 330 333 335 333 331 330 330 329 327 326 326 325 325 324 321 321 321 319 316 314 310 309 307 302 303 306 298 290 282 279 276 269 257 250 246 250 236 225 222 215
339 337 331 326 329 331 332 329 326 326 325 324 322 323 322 323 320 319 318 318 318 316 315 314 312 311 309 307 303 303 294 281 276 273 270 267 248 251 246 237 226 223 206
333 333 330 321 326 328 329 323 321 324 322 320 319 320 318 319 317 318 315 315 317 312 313 314 309 307 308 307 304 298 298 290 285 280 272 258 247 257 251 240 228 214 196
329 329 325 325 321 324 324 318 319 320 319 317 317 318 318 318 318 315 312 313 311 309 309 305 304 306 304 303 300 295 296 289 287 282 278 276 263 240 238 231 222 209 192
319 319 319 313 316 321 320 317 319 319 318 315 313 313 317 315 313 312 312 309 305 304 307 306 302 302 301 300 298 293 294 289 283 282 273 273 247 223 218 213 208 200 186
319 316 314 316 313 314 312 311 314 316 314 312 312 313 314 311 311 310 314 311 308 309 308 306 306 305 301 302 301 299 293 288 286 283 264 262 237 219 214 203 193 185 182